Location: Asheville, NC
(35.6000°N, 82.5500°W)
Time: 18:47:01
(UTC-05:00)

Tiangong 1 - Pass Details

Date: 17 February 2018
Orbit: 249 x 272 km, 42.8° (Epoch: 17 February)

Event Time Altitude Azimuth Distance (km) Brightness Sun altitude
Exits shadow 05:47:52 21° 30° (NNE) 645 2.5 -18.3°
Drops below altitude 10° 05:49:25 10° 71° (ENE) 1,029 4.3 -18.0°
Sets 05:51:31 0° 88° (E) 1,835 6.3 -17.5°
